Regional Weather Roundup
Issued by NWS

Home | Current Version | Previous Version | Text Only | Print | Product List | Glossary On
Versions: 1 2 3 4 5 6 7 8 9 10 11 12 13 14 15 16 17 18 19 20 21 22 23 24 25 26 27 28 29 30 31 32 33 34 35 36 37 38 39 40 41 42 43 44 45 46 47 48 49 50
000
ASUS43 KDTX 141310
RWRMI
MICHIGAN HOURLY REGIONAL WEATHER ROUNDUP
NATIONAL WEATHER SERVICE DETROIT/PONTIAC MI
800 AM EST THU DEC 14 2017

NOTE: "FAIR" INDICATES FEW OR NO CLOUDS BELOW 12,000 FEET WITH NO
SIGNIFICANT WEATHER AND/OR OBSTRUCTION TO VISIBILITY.

MIZ047>049-052>055-059>063-066>070-074>076-081>083-141400-
SOUTHEAST LOWER MICHIGAN

CITY           SKY/WX    TMP DP  RH WIND       PRES   REMARKS
ADRIAN         CLOUDY    10   5  80 N7        29.94R WCI  -1
ALMA           CLOUDY   -11 -15  81 CALM      29.95R HAZE
ANN ARBOR      PTCLDY    12   6  77 NW9       29.92R WCI   0
BAD AXE        FLURRIES  11   7  82 NW9       29.89R WCI  -1
CARO           CLOUDY     1  -3  86 CALM      29.92R
DETROIT CITY   CLEAR     14   9  80 NW6       29.92R WCI   5
DETROIT        PTCLDY    15   7  70 NW7       29.93R WCI   5
FLINT          CLOUDY     3   0  87 W7        29.92R WCI  -9
GROSSE ILE     PTCLDY    14   9  80 NW9       29.92R WCI   2
HILLSDALE      PTCLDY     5   3  92 NW6       29.91R WCI  -6
HOWELL         CLOUDY     7   5  91 W5        29.91R WCI  -2

CITY           SKY/WX    TMP DP  RH WIND       PRES   REMARKS
JACKSON        CLOUDY     6   2  83 SW3       29.93R
LAMBERTVILLE   CLOUDY    10   7  85 CALM      29.94R
LANSING        CLOUDY     2  -1  88 CALM      29.95R
LAPEER         FAIR       7   3  86 NW6       29.90S WCI  -4
MASON          LGT SNOW   1  -5  76 CALM      29.93R
MONROE         CLEAR     12   5  74 NW6       29.92R WCI   3
MT. CLEMENS    PTCLDY    14  10  85 NW7       29.89R WCI   4
PONTIAC        PTCLDY     8   6  92 W7        29.88R WCI  -3
PORT HOPE        N/A     18   9  68 NW14G22   29.86R WCI   4
PORT HURON     PTCLDY    12   7  79 NW6       29.89R WCI   3
TRI CITIES     CLOUDY     2   1  96 NW5       29.95R WCI  -8
MIDLAND        FAIR      -6 -10  82 CALM      29.95R
TROY           CLEAR     14   9  82 NW10      29.93R WCI   1
SAGINAW HB     CLOUDY     3   0  85 NW7       29.94R WCI  -9
$$
MIZ043>046-050>051-056>058-064>065-071>073-077>080-141400-
SOUTHWEST LOWER MICHIGAN

CITY           SKY/WX    TMP DP  RH WIND       PRES   REMARKS
BATTLE CREEK   CLOUDY     5   1  83 CALM      29.94R
BENTON HARBOR  CLOUDY    15   8  73 SE6       29.98R WCI   6
BIG RAPIDS     CLOUDY    -7 -11  81 CALM      29.92R
COLDWATER      CLOUDY     8   6  90 CALM      29.94R
HOLLAND        CLOUDY     3  -1  83 CALM      29.97R
GRAND RAPIDS   CLOUDY     3   0  87 E3        29.95R
IONIA          FAIR       3   0  87 W3        29.94R
KALAMAZOO      CLOUDY     5   1  83 CALM      29.95R
LUDINGTON      FLURRIES  14  12  91 CALM      29.95R
MARSHALL       LGT SNOW   3   0  87 CALM      29.94R VSB 1
MOUNT PLEASANT CLOUDY    -2  -8  78 CALM      29.93R
MUSKEGON       CLOUDY     9   4  80 E3        29.97R
SOUTH HAVEN    LGT SNOW   3  -1  83 CALM      29.97R
$$
MIZ016>042-141400-
NORTHERN LOWER MICHIGAN

CITY           SKY/WX    TMP DP  RH WIND       PRES   REMARKS
ALPENA         MOCLDY     6   3  87 W8        29.90R WCI  -7
BEAVER ISLAND  CLOUDY    18  10  73 NW8G16    29.92R WCI   7
BELLAIRE       MOCLDY     2   1  94 CALM      29.94R
CADILLAC       FLURRIES  -4  -8  84 CALM      29.87R
CHARLEVOIX     MOCLDY    19  10  70 NW8G16    29.94R WCI   8
FRANKFORT      CLOUDY    23  13  65 N3        29.93R
GAYLORD        LGT SNOW   6   1  80 CALM      29.85R
GRAYLING       LGT SNOW -11 -15  80 CALM      29.89R
HARBOR SPRINGS FLURRIES  10   6  87 CALM      29.91R
HOUGHTON LAKE  PTCLDY    -2  -5  87 CALM      29.89R
MANISTEE       FLURRIES  14  11  87 E3        29.94R
OSCODA         CLEAR     -4 -10  78 W5        29.91R WCI -15
PELLSTON       CLOUDY    12   8  84 N5        29.92R WCI   4
ROGERS CITY    LGT SNOW  10   6  84 W9        29.91R WCI  -3
TRAVERSE CITY  LGT SNOW  15  11  83 CALM      29.91S VSB 3/4
$$
MIZ007>008-015-141400-
EASTERN UPPER MICHIGAN

CITY           SKY/WX    TMP DP  RH WIND       PRES   REMARKS
KINROSS        FLURRIES  -2  -5  87 SE3       29.90R
MACKINAC ISLAN FLURRIES  12   7  81 W9        29.91R WCI   0
NEWBERRY       FLURRIES  12  10  90 W5        29.88R WCI   4
S. S. MARIE    CLOUDY     2  -3  80 NE3       29.89R HAZE
$$
MIZ004>006-011>014-085-141400-
CENTRAL UPPER MICHIGAN

CITY           SKY/WX    TMP DP  RH WIND       PRES   REMARKS
MANISTIQUE     FLURRIES  11   7  81 W6        29.93R WCI   2
ESCANABA       PTCLDY    10   5  80 W8        29.96R WCI  -2
MENOMINEE      CLOUDY    -2  -5  87 NW5       29.99R WCI -12
SAWYER-GWINN   FLURRIES  12   7  79 W9        29.91R WCI   0
$$
MIZ001>003-009>011-084-141400-
WESTERN UPPER MICHIGAN

CITY           SKY/WX    TMP DP  RH WIND       PRES   REMARKS
IRON MOUNTAIN  PTCLDY     4   0  83 CALM      29.92R
HOUGHTON       MOCLDY    11   3  70 NW8       29.90R WCI  -1
IRONWOOD       CLOUDY    11   8  88 W9        29.95R WCI  -2
$$

ABBREVIATIONS USED IN REMARKS
   TC - TEMPERATURE IN CELSIUS
  WCI - WIND CHILL INDEX
   HX - HEAT INDEX
  VSB - VISIBILITY





USA.gov is the U.S. government's official web portal to all federal, state and local government web resources and services.